QPF
0.04 0.04 0.02 0.01 0.01 0.01 0.00 0.00 0.00 0.01 0.01 0.01 0.01 0.01 0.01 0.01 0.01 0.00 0.00 0.01 0.02 0.01 0.01 0.01 0.01 0.02 0.01 0.01 0.01 0.01 0.01 0.02 0.01 0.01 0.01 0.01 0.01 0.01 0.01 0.01 0.01 0.01 0.02
0.03 0.03 0.03 0.02 0.02 0.01 0.00 0.00 0.00 0.00 0.01 0.01 0.01 0.01 0.01 0.00 0.01 0.01 0.01 0.01 0.01 0.01 0.01 0.02 0.02 0.02 0.02 0.02 0.02 0.02 0.02 0.03 0.02 0.02 0.02 0.01 0.01 0.01 0.01 0.01 0.01 0.01 0.01
0.03 0.03 0.02 0.02 0.02 0.02 0.01 0.01 0.00 0.00 0.00 0.00 0.00 0.00 0.00 0.00 0.00 0.01 0.00 0.01 0.01 0.01 0.01 0.01 0.01 0.01 0.01 0.02 0.03 0.04 0.04 0.03 0.03 0.02 0.02 0.02 0.01 0.01 0.01 0.01 0.01 0.01 0.01
0.03 0.03 0.03 0.03 0.03 0.03 0.02 0.01 0.01 0.00 0.00 0.00 0.00 0.00 0.00 0.00 0.00 0.00 0.00 0.01 0.01 0.01 0.01 0.01 0.00 0.00 0.01 0.01 0.02 0.03 0.05 0.05 0.06 0.05 0.04 0.02 0.02 0.01 0.01 0.01 0.01 0.01 0.01
0.05 0.04 0.04 0.03 0.03 0.03 0.02 0.02 0.02 0.01 0.01 0.00 0.00 0.00 0.00 0.00 0.00 0.00 0.01 0.01 0.01 0.01 0.01 0.00 0.00 0.00 0.00 0.00 0.01 0.02 0.04 0.07 0.08 0.07 0.05 0.04 0.03 0.02 0.02 0.02 0.01 0.01 0.02
0.07 0.05 0.05 0.04 0.03 0.03 0.02 0.01 0.01 0.01 0.01 0.01 0.01 0.00 0.00 0.00 0.00 0.01 0.01 0.01 0.01 0.01 0.01 0.00 0.00 0.00 0.00 0.00 0.00 0.01 0.01 0.03 0.05 0.08 0.07 0.06 0.04 0.03 0.03 0.03 0.03 0.02 0.02
0.08 0.06 0.04 0.03 0.02 0.02 0.02 0.01 0.02 0.02 0.01 0.01 0.01 0.01 0.01 0.01 0.01 0.01 0.01 0.01 0.01 0.01 0.01 0.00 0.00 0.00 0.00 0.00 0.00 0.01 0.01 0.01 0.02 0.03 0.06 0.07 0.07 0.05 0.04 0.04 0.03 0.03 0.03
0.08 0.07 0.05 0.04 0.03 0.02 0.02 0.02 0.02 0.02 0.02 0.02 0.03 0.03 0.03 0.02 0.02 0.02 0.01 0.01 0.01 0.01 0.01 0.00 0.00 0.00 0.00 0.01 0.01 0.01 0.01 0.01 0.01 0.02 0.03 0.05 0.08 0.10 0.10 0.08 0.06 0.05 0.04
0.06 0.04 0.03 0.03 0.04 0.03 0.02 0.02 0.02 0.03 0.02 0.02 0.03 0.04 0.05 0.04 0.02 0.02 0.02 0.01 0.01 0.01 0.01 0.01 0.00 0.00 0.01 0.01 0.01 0.01 0.01 0.01 0.01 0.02 0.03 0.04 0.05 0.07 0.09 0.10 0.10 0.09 0.07
0.06 0.05 0.03 0.03 0.03 0.03 0.03 0.02 0.02 0.02 0.03 0.03 0.03 0.03 0.04 0.04 0.04 0.03 0.02 0.02 0.01 0.01 0.01 0.01 0.01 0.01 0.01 0.01 0.01 0.01 0.01 0.01 0.01 0.02 0.02 0.03 0.04 0.04 0.05 0.06 0.08 0.11 0.12
0.03 0.04 0.04 0.04 0.04 0.03 0.02 0.02 0.01 0.01 0.02 0.03 0.03 0.03 0.03 0.03 0.03 0.03 0.03 0.02 0.02 0.02 0.02 0.02 0.02 0.01 0.00 0.00 0.00 0.00 0.00 0.01 0.01 0.02 0.02 0.02 0.03 0.03 0.04 0.05 0.06 0.08 0.11
0.02 0.02 0.02 0.02 0.02 0.01 0.01 0.01 0.01 0.01 0.02 0.02 0.02 0.03 0.03 0.03 0.03 0.03 0.02 0.02 0.02 0.02 0.02 0.02 0.01 0.01 0.00 0.00 0.00 0.00 0.00 0.00 0.01 0.01 0.02 0.02 0.03 0.03 0.03 0.03 0.04 0.04 0.06
0.01 0.01 0.01 0.02 0.02 0.02 0.02 0.01 0.01 0.01 0.02 0.02 0.02 0.02 0.03 0.03 0.03 0.03 0.03 0.03 0.02 0.02 0.02 0.02 0.01 0.01 0.00 0.00 0.00 0.00 0.01 0.01 0.01 0.01 0.02 0.02 0.02 0.02 0.03 0.03 0.03 0.02 0.03
0.01 0.01 0.01 0.01 0.02 0.02 0.02 0.02 0.02 0.02 0.02 0.02 0.02 0.03 0.03 0.03 0.03 0.03 0.04 0.04 0.04 0.03 0.02 0.02 0.02 0.02 0.01 0.01 0.01 0.01 0.01 0.01 0.01 0.01 0.01 0.01 0.01 0.01 0.01 0.01 0.01 0.01 0.01
0.01 0.01 0.01 0.01 0.01 0.02 0.02 0.03 0.04 0.04 0.03 0.03 0.03 0.03 0.03 0.03 0.02 0.02 0.03 0.04 0.04 0.05 0.05 0.04 0.03 0.03 0.02 0.02 0.01 0.01 0.01 0.01 0.01 0.00 0.00 0.00 0.00 0.00 0.01 0.01 0.01 0.01 0.01
0.02 0.02 0.01 0.01 0.01 0.01 0.01 0.02 0.03 0.04 0.04 0.04 0.04 0.03 0.02 0.02 0.02 0.02 0.02 0.03 0.04 0.06 0.06 0.04 0.03 0.02 0.03 0.02 0.02 0.01 0.01 0.01 0.00 0.00 0.00 0.00 0.00 0.00 0.00 0.00 0.00 0.00 0.00
0.02 0.02 0.02 0.03 0.02 0.02 0.02 0.02 0.02 0.02 0.03 0.03 0.04 0.04 0.03 0.02 0.02 0.02 0.02 0.02 0.03 0.03 0.03 0.02 0.03 0.03 0.02 0.02 0.02 0.01 0.01 0.01 0.00 0.00 0.00 0.00 0.00 0.00 0.00 0.00 0.00 0.00 0.01
0.01 0.01 0.01 0.02 0.02 0.02 0.02 0.02 0.02 0.02 0.02 0.02 0.02 0.02 0.03 0.03 0.03 0.02 0.02 0.01 0.01 0.01 0.01 0.02 0.02 0.03 0.02 0.02 0.02 0.01 0.01 0.00 0.00 0.00 0.00 0.00 0.00 0.00 0.01 0.01 0.01 0.01 0.01
0.00 0.01 0.01 0.01 0.01 0.01 0.01 0.01 0.01 0.01 0.01 0.01 0.01 0.02 0.02 0.02 0.03 0.03 0.03 0.02 0.02 0.01 0.01 0.02 0.02 0.02 0.02 0.03 0.03 0.02 0.01 0.00 0.00 0.00 0.01 0.01 0.01 0.01 0.01 0.01 0.01 0.01 0.01
0.00 0.00 0.00 0.01 0.01 0.01 0.01 0.01 0.01 0.01 0.01 0.01 0.01 0.02 0.02 0.02 0.03 0.03 0.03 0.03 0.03 0.03 0.03 0.03 0.02 0.02 0.02 0.03 0.03 0.02 0.01 0.01 0.00 0.00 0.00 0.01 0.01 0.01 0.01 0.01 0.01 0.01 0.02
0.00 0.01 0.01 0.01 0.01 0.01 0.01 0.01 0.01 0.01 0.01 0.01 0.01 0.01 0.02 0.02 0.02 0.03 0.03 0.03 0.04 0.04 0.04 0.03 0.03 0.03 0.03 0.03 0.03 0.02 0.01 0.01 0.01 0.01 0.00 0.00 0.01 0.01 0.01 0.01 0.01 0.01 0.01
0.01 0.01 0.01 0.01 0.01 0.01 0.01 0.01 0.01 0.01 0.01 0.01 0.01 0.01 0.02 0.03 0.03 0.03 0.03 0.03 0.03 0.04 0.04 0.04 0.04 0.03 0.03 0.03 0.02 0.02 0.02 0.02 0.02 0.01 0.01 0.01 0.01 0.01 0.01 0.01 0.01 0.02 0.02
0.01 0.01 0.01 0.01 0.01 0.00 0.01 0.01 0.01 0.01 0.00 0.00 0.01 0.01 0.01 0.03 0.04 0.04 0.03 0.02 0.02 0.02 0.03 0.03 0.03 0.03 0.03 0.02 0.02 0.02 0.02 0.02 0.02 0.01 0.01 0.01 0.01 0.01 0.01 0.01 0.01 0.02 0.02
0.01 0.01 0.01 0.01 0.00 0.00 0.00 0.00 0.00 0.00 0.00 0.00 0.01 0.01 0.01 0.02 0.04 0.05 0.05 0.04 0.02 0.02 0.02 0.02 0.02 0.02 0.02 0.02 0.03 0.03 0.03 0.03 0.03 0.02 0.02 0.02 0.02 0.02 0.02 0.02 0.02 0.02 0.02
0.01 0.01 0.01 0.01 0.00 0.00 0.01 0.01 0.01 0.00 0.00 0.00 0.01 0.01 0.01 0.02 0.03 0.05 0.05 0.04 0.03 0.02 0.02 0.02 0.02 0.02 0.02 0.03 0.03 0.03 0.04 0.04 0.03 0.02 0.02 0.02 0.02 0.03 0.02 0.02 0.02 0.02 0.02
0.00 0.00 0.01 0.00 0.00 0.00 0.01 0.01 0.01 0.01 0.00 0.00 0.01 0.01 0.01 0.02 0.02 0.03 0.04 0.05 0.04 0.03 0.02 0.02 0.03 0.03 0.03 0.02 0.02 0.02 0.02 0.03 0.03 0.02 0.02 0.02 0.02 0.02 0.02 0.02 0.02 0.01 0.01
MSLP
1019.12 1019.21 1019.29 1019.36 1019.42 1019.47 1019.51 1019.53 1019.53 1019.52 1019.49 1019.46 1019.44 1019.45 1019.50 1019.60 1019.77 1019.99 1020.26 1020.55 1020.83 1021.07 1021.27 1021.40 1021.48 1021.51 1021.51 1021.52 1021.54 1021.60 1021.69 1021.81 1021.94 1022.07 1022.18 1022.26 1022.29 1022.29 1022.26 1022.22 1022.18 1022.15 1022.15
1019.35 1019.41 1019.45 1019.47 1019.50 1019.52 1019.55 1019.56 1019.56 1019.54 1019.51 1019.47 1019.43 1019.41 1019.43 1019.49 1019.62 1019.81 1020.05 1020.31 1020.58 1020.83 1021.03 1021.19 1021.31 1021.38 1021.44 1021.50 1021.58 1021.69 1021.83 1021.99 1022.16 1022.32 1022.45 1022.54 1022.58 1022.59 1022.56 1022.52 1022.48 1022.45 1022.44
1019.61 1019.63 1019.63 1019.63 1019.63 1019.64 1019.65 1019.67 1019.68 1019.67 1019.65 1019.61 1019.56 1019.51 1019.50 1019.52 1019.60 1019.73 1019.92 1020.14 1020.37 1020.60 1020.81 1020.99 1021.13 1021.24 1021.34 1021.45 1021.58 1021.72 1021.90 1022.09 1022.28 1022.46 1022.61 1022.71 1022.77 1022.79 1022.77 1022.74 1022.70 1022.68 1022.68
1019.87 1019.87 1019.85 1019.82 1019.80 1019.80 1019.82 1019.84 1019.87 1019.89 1019.88 1019.85 1019.80 1019.75 1019.70 1019.68 1019.71 1019.79 1019.91 1020.08 1020.28 1020.48 1020.68 1020.85 1021.01 1021.15 1021.28 1021.41 1021.55 1021.72 1021.90 1022.09 1022.29 1022.47 1022.61 1022.72 1022.79 1022.83 1022.83 1022.82 1022.80 1022.79 1022.80
1020.13 1020.11 1020.08 1020.04 1020.01 1020.00 1020.02 1020.06 1020.10 1020.15 1020.16 1020.15 1020.11 1020.06 1020.00 1019.95 1019.94 1019.97 1020.05 1020.17 1020.33 1020.51 1020.69 1020.86 1021.02 1021.16 1021.29 1021.42 1021.55 1021.70 1021.85 1022.02 1022.18 1022.34 1022.47 1022.57 1022.65 1022.70 1022.72 1022.74 1022.75 1022.77 1022.80
1020.37 1020.36 1020.32 1020.27 1020.23 1020.22 1020.24 1020.28 1020.34 1020.40 1020.44 1020.45 1020.43 1020.38 1020.32 1020.27 1020.23 1020.24 1020.30 1020.40 1020.53 1020.70 1020.87 1021.03 1021.18 1021.31 1021.43 1021.53 1021.62 1021.71 1021.81 1021.91 1022.02 1022.12 1022.21 1022.30 1022.37 1022.43 1022.48 1022.52 1022.57 1022.62 1022.68
1020.60 1020.60 1020.56 1020.51 1020.47 1020.45 1020.46 1020.50 1020.55 1020.61 1020.66 1020.68 1020.68 1020.65 1020.61 1020.57 1020.55 1020.56 1020.61 1020.71 1020.85 1021.02 1021.19 1021.35 1021.50 1021.61 1021.70 1021.75 1021.79 1021.81 1021.83 1021.84 1021.87 1021.90 1021.94 1021.99 1022.04 1022.10 1022.16 1022.23 1022.31 1022.39 1022.47
1020.82 1020.83 1020.81 1020.77 1020.72 1020.69 1020.67 1020.69 1020.72 1020.76 1020.80 1020.83 1020.85 1020.84 1020.83 1020.82 1020.82 1020.86 1020.95 1021.07 1021.23 1021.41 1021.60 1021.77 1021.92 1022.02 1022.08 1022.10 1022.07 1022.02 1021.95 1021.88 1021.82 1021.78 1021.75 1021.75 1021.77 1021.81 1021.88 1021.96 1022.05 1022.14 1022.24
1021.01 1021.07 1021.07 1021.04 1020.99 1020.93 1020.89 1020.86 1020.86 1020.87 1020.89 1020.92 1020.94 1020.95 1020.97 1020.99 1021.04 1021.12 1021.24 1021.40 1021.60 1021.81 1022.03 1022.23 1022.39 1022.50 1022.55 1022.54 1022.47 1022.37 1022.24 1022.09 1021.95 1021.83 1021.74 1021.68 1021.66 1021.68 1021.72 1021.78 1021.86 1021.94 1022.03
1021.20 1021.30 1021.33 1021.32 1021.26 1021.19 1021.11 1021.04 1020.99 1020.97 1020.96 1020.97 1020.99 1021.01 1021.05 1021.11 1021.20 1021.32 1021.48 1021.68 1021.91 1022.17 1022.42 1022.65 1022.84 1022.97 1023.04 1023.03 1022.96 1022.83 1022.67 1022.48 1022.29 1022.11 1021.97 1021.86 1021.78 1021.75 1021.74 1021.76 1021.80 1021.84 1021.88
1021.38 1021.52 1021.59 1021.59 1021.55 1021.46 1021.35 1021.25 1021.16 1021.09 1021.06 1021.04 1021.05 1021.08 1021.14 1021.22 1021.33 1021.48 1021.67 1021.89 1022.16 1022.44 1022.72 1022.99 1023.22 1023.39 1023.49 1023.52 1023.47 1023.36 1023.20 1023.01 1022.80 1022.59 1022.41 1022.25 1022.12 1022.03 1021.96 1021.91 1021.88 1021.84 1021.81
1021.52 1021.71 1021.83 1021.86 1021.82 1021.74 1021.62 1021.50 1021.38 1021.29 1021.22 1021.19 1021.19 1021.22 1021.28 1021.36 1021.48 1021.63 1021.83 1022.06 1022.33 1022.63 1022.93 1023.23 1023.49 1023.71 1023.87 1023.95 1023.96 1023.90 1023.78 1023.61 1023.42 1023.21 1023.00 1022.81 1022.63 1022.48 1022.33 1022.20 1022.07 1021.95 1021.82
1021.64 1021.87 1022.02 1022.08 1022.07 1022.01 1021.90 1021.78 1021.66 1021.56 1021.49 1021.46 1021.45 1021.47 1021.52 1021.59 1021.70 1021.83 1022.01 1022.22 1022.47 1022.76 1023.06 1023.37 1023.67 1023.93 1024.14 1024.29 1024.37 1024.38 1024.32 1024.20 1024.04 1023.85 1023.64 1023.43 1023.21 1023.00 1022.79 1022.57 1022.35 1022.13 1021.90
1021.69 1021.95 1022.14 1022.24 1022.27 1022.24 1022.17 1022.07 1021.98 1021.91 1021.85 1021.83 1021.82 1021.84 1021.88 1021.93 1022.01 1022.11 1022.24 1022.41 1022.62 1022.87 1023.16 1023.46 1023.77 1024.06 1024.31 1024.52 1024.67 1024.74 1024.75 1024.70 1024.58 1024.42 1024.23 1024.00 1023.76 1023.51 1023.24 1022.96 1022.66 1022.36 1022.05
1021.68 1021.96 1022.17 1022.31 1022.39 1022.41 1022.39 1022.36 1022.31 1022.28 1022.27 1022.27 1022.28 1022.31 1022.34 1022.37 1022.41 1022.47 1022.55 1022.66 1022.82 1023.02 1023.26 1023.54 1023.83 1024.13 1024.41 1024.66 1024.85 1024.98 1025.04 1025.04 1024.97 1024.84 1024.67 1024.45 1024.20 1023.93 1023.63 1023.31 1022.97 1022.62 1022.25
1021.59 1021.87 1022.10 1022.28 1022.41 1022.49 1022.54 1022.58 1022.61 1022.64 1022.68 1022.73 1022.77 1022.81 1022.84 1022.86 1022.87 1022.89 1022.92 1022.98 1023.08 1023.22 1023.42 1023.65 1023.92 1024.20 1024.48 1024.73 1024.94 1025.10 1025.19 1025.22 1025.18 1025.08 1024.92 1024.72 1024.49 1024.22 1023.92 1023.59 1023.25 1022.89 1022.51
1021.41 1021.69 1021.93 1022.14 1022.31 1022.46 1022.58 1022.70 1022.80 1022.91 1023.02 1023.12 1023.21 1023.27 1023.32 1023.33 1023.33 1023.32 1023.32 1023.34 1023.39 1023.49 1023.63 1023.83 1024.05 1024.30 1024.55 1024.78 1024.98 1025.13 1025.23 1025.26 1025.23 1025.14 1025.01 1024.83 1024.62 1024.37 1024.10 1023.81 1023.49 1023.16 1022.82
1021.16 1021.42 1021.67 1021.90 1022.11 1022.31 1022.49 1022.68 1022.86 1023.04 1023.21 1023.37 1023.51 1023.61 1023.68 1023.71 1023.72 1023.71 1023.70 1023.70 1023.73 1023.79 1023.90 1024.06 1024.24 1024.44 1024.65 1024.85 1025.01 1025.13 1025.20 1025.22 1025.18 1025.10 1024.97 1024.82 1024.63 1024.43 1024.20 1023.96 1023.70 1023.42 1023.13
1020.86 1021.09 1021.32 1021.56 1021.79 1022.03 1022.26 1022.50 1022.75 1022.99 1023.22 1023.43 1023.61 1023.76 1023.87 1023.93 1023.97 1023.98 1023.99 1024.00 1024.03 1024.09 1024.19 1024.31 1024.47 1024.63 1024.79 1024.94 1025.06 1025.14 1025.17 1025.16 1025.10 1025.01 1024.89 1024.75 1024.59 1024.42 1024.24 1024.06 1023.86 1023.64 1023.41
1020.49 1020.69 1020.91 1021.14 1021.37 1021.63 1021.89 1022.16 1022.45 1022.73 1023.00 1023.26 1023.49 1023.68 1023.84 1023.95 1024.03 1024.09 1024.14 1024.19 1024.25 1024.33 1024.43 1024.55 1024.69 1024.82 1024.95 1025.06 1025.13 1025.17 1025.16 1025.12 1025.03 1024.93 1024.80 1024.67 1024.53 1024.39 1024.25 1024.11 1023.95 1023.79 1023.60
1020.07 1020.23 1020.42 1020.63 1020.86 1021.10 1021.37 1021.66 1021.96 1022.27 1022.58 1022.87 1023.14 1023.38 1023.58 1023.75 1023.90 1024.02 1024.12 1024.23 1024.34 1024.45 1024.58 1024.71 1024.85 1024.98 1025.08 1025.16 1025.21 1025.21 1025.18 1025.11 1025.00 1024.88 1024.75 1024.61 1024.48 1024.35 1024.23 1024.11 1023.98 1023.84 1023.68
1019.57 1019.70 1019.85 1020.03 1020.23 1020.46 1020.72 1021.00 1021.31 1021.63 1021.95 1022.27 1022.58 1022.87 1023.13 1023.36 1023.57 1023.76 1023.94 1024.11 1024.27 1024.43 1024.60 1024.76 1024.91 1025.04 1025.15 1025.22 1025.25 1025.24 1025.20 1025.12 1025.01 1024.88 1024.74 1024.60 1024.46 1024.33 1024.20 1024.07 1023.94 1023.79 1023.62
1018.99 1019.08 1019.19 1019.33 1019.50 1019.70 1019.94 1020.21 1020.51 1020.83 1021.17 1021.52 1021.86 1022.19 1022.51 1022.81 1023.09 1023.35 1023.60 1023.83 1024.05 1024.27 1024.47 1024.66 1024.84 1024.99 1025.10 1025.19 1025.23 1025.23 1025.20 1025.12 1025.02 1024.90 1024.76 1024.61 1024.46 1024.31 1024.16 1024.00 1023.84 1023.66 1023.46
1018.30 1018.34 1018.42 1018.52 1018.65 1018.83 1019.04 1019.30 1019.59 1019.92 1020.27 1020.64 1021.02 1021.40 1021.78 1022.14 1022.48 1022.81 1023.12 1023.42 1023.70 1023.96 1024.20 1024.42 1024.62 1024.80 1024.94 1025.05 1025.12 1025.15 1025.14 1025.10 1025.02 1024.91 1024.78 1024.63 1024.47 1024.30 1024.12 1023.92 1023.71 1023.48 1023.24
1017.47 1017.48 1017.51 1017.58 1017.69 1017.84 1018.04 1018.29 1018.58 1018.91 1019.28 1019.68 1020.10 1020.52 1020.95 1021.38 1021.79 1022.18 1022.55 1022.90 1023.22 1023.52 1023.80 1024.05 1024.28 1024.48 1024.66 1024.80 1024.90 1024.98 1025.01 1025.01 1024.97 1024.90 1024.79 1024.65 1024.49 1024.30 1024.09 1023.86 1023.60 1023.33 1023.04
1016.52 1016.49 1016.49 1016.54 1016.63 1016.77 1016.96 1017.20 1017.49 1017.84 1018.23 1018.65 1019.11 1019.58 1020.06 1020.53 1021.00 1021.45 1021.87 1022.27 1022.64 1022.98 1023.29 1023.57 1023.83 1024.06 1024.27 1024.44 1024.59 1024.72 1024.80 1024.85 1024.86 1024.83 1024.75 1024.64 1024.49 1024.30 1024.08 1023.82 1023.54 1023.24 1022.92
Thickness
5643 5643 5643 5642 5641 5641 5642 5641 5642 5641 5641 5641 5641 5641 5641 5640 5640 5640 5640 5638 5638 5638 5638 5639 5638 5638 5638 5638 5637 5637 5637 5638 5638 5638 5639 5639 5640 5640 5640 5641 5642 5642 5642
5635 5634 5634 5633 5633 5633 5633 5633 5633 5633 5633 5633 5633 5632 5632 5632 5632 5631 5631 5630 5629 5628 5628 5628 5629 5629 5628 5628 5628 5627 5627 5628 5628 5629 5630 5630 5631 5631 5632 5632 5633 5634 5634
5626 5626 5626 5625 5625 5624 5624 5624 5624 5623 5623 5623 5624 5623 5623 5623 5622 5622 5622 5621 5620 5619 5618 5618 5618 5618 5618 5618 5617 5617 5617 5617 5618 5619 5620 5620 5621 5622 5623 5623 5624 5625 5626
5618 5618 5617 5617 5616 5615 5615 5615 5614 5614 5614 5614 5614 5614 5613 5612 5612 5612 5612 5611 5610 5609 5608 5608 5607 5607 5608 5607 5607 5607 5607 5607 5608 5608 5609 5610 5611 5612 5613 5614 5615 5616 5616
5609 5609 5608 5608 5607 5606 5606 5605 5605 5605 5604 5603 5603 5603 5603 5602 5602 5601 5601 5600 5599 5598 5598 5597 5596 5596 5596 5596 5596 5596 5597 5597 5597 5598 5599 5600 5601 5602 5603 5604 5605 5606 5607
5600 5600 5599 5598 5598 5597 5596 5595 5595 5594 5593 5592 5592 5592 5592 5592 5591 5591 5590 5589 5588 5587 5587 5586 5586 5585 5584 5584 5584 5585 5586 5586 5587 5587 5588 5589 5591 5592 5593 5593 5594 5596 5597
5591 5590 5589 5589 5588 5587 5586 5585 5584 5584 5583 5581 5581 5582 5582 5582 5581 5579 5579 5578 5578 5576 5575 5574 5574 5573 5573 5573 5573 5573 5574 5575 5576 5577 5577 5579 5580 5582 5583 5583 5584 5585 5586
5581 5581 5580 5579 5578 5577 5577 5575 5574 5574 5572 5570 5571 5572 5575 5575 5572 5569 5568 5566 5566 5564 5564 5563 5562 5561 5561 5561 5562 5561 5562 5563 5565 5566 5567 5568 5570 5571 5572 5573 5573 5575 5576
5572 5572 5571 5570 5568 5567 5567 5565 5564 5563 5562 5560 5559 5559 5561 5566 5563 5559 5557 5555 5554 5554 5553 5551 5550 5549 5549 5550 5550 5550 5550 5552 5553 5555 5556 5558 5559 5560 5561 5562 5562 5564 5565
5563 5562 5561 5561 5559 5557 5556 5555 5554 5552 5551 5551 5549 5546 5546 5547 5546 5549 5548 5545 5543 5543 5542 5541 5540 5539 5538 5538 5538 5539 5539 5540 5542 5543 5545 5546 5548 5549 5550 5550 5551 5553 5554
5553 5552 5551 5550 5549 5548 5546 5545 5544 5542 5541 5541 5539 5537 5534 5533 5533 5534 5538 5536 5534 5532 5531 5530 5529 5529 5529 5528 5528 5528 5528 5529 5530 5531 5533 5534 5535 5536 5537 5538 5539 5541 5542
5544 5543 5541 5540 5539 5538 5537 5535 5534 5533 5532 5530 5528 5527 5526 5524 5524 5523 5524 5525 5524 5523 5521 5520 5520 5519 5518 5518 5518 5517 5517 5518 5518 5519 5520 5521 5522 5523 5524 5525 5526 5528 5530
5535 5533 5532 5530 5529 5528 5527 5526 5525 5523 5522 5520 5518 5517 5515 5514 5512 5511 5511 5512 5512 5513 5512 5512 5511 5509 5508 5508 5508 5507 5507 5507 5507 5508 5508 5509 5510 5510 5511 5512 5514 5515 5516
5525 5523 5521 5520 5519 5518 5517 5516 5515 5513 5511 5509 5508 5506 5504 5502 5501 5499 5498 5497 5498 5501 5503 5504 5502 5500 5499 5499 5498 5496 5497 5497 5496 5496 5496 5497 5497 5497 5498 5499 5501 5502 5503
5514 5513 5511 5510 5509 5507 5506 5505 5504 5503 5500 5498 5497 5495 5494 5492 5490 5488 5486 5486 5486 5490 5494 5495 5492 5490 5488 5488 5488 5487 5487 5487 5486 5485 5485 5485 5485 5486 5486 5487 5489 5490 5490
5504 5503 5501 5500 5498 5496 5495 5494 5493 5492 5490 5488 5485 5484 5483 5481 5479 5477 5476 5475 5475 5476 5479 5483 5481 5479 5478 5477 5477 5477 5477 5476 5475 5474 5474 5474 5474 5474 5475 5476 5476 5477 5478
5494 5492 5490 5489 5487 5486 5484 5483 5482 5481 5479 5477 5475 5473 5472 5470 5468 5466 5465 5464 5463 5463 5465 5469 5468 5467 5467 5467 5467 5466 5465 5465 5465 5464 5463 5462 5462 5463 5463 5464 5464 5464 5465
5483 5481 5480 5478 5477 5475 5474 5473 5472 5470 5469 5467 5465 5463 5461 5459 5457 5456 5455 5454 5453 5453 5454 5456 5457 5457 5457 5456 5456 5455 5455 5454 5454 5453 5452 5451 5451 5451 5451 5452 5452 5453 5453
5472 5470 5469 5467 5466 5465 5463 5462 5460 5459 5458 5457 5455 5453 5451 5449 5448 5447 5446 5445 5444 5444 5444 5444 5446 5446 5446 5445 5444 5444 5444 5443 5443 5442 5441 5440 5440 5440 5440 5441 5441 5441 5442
5460 5459 5457 5456 5455 5453 5452 5450 5449 5448 5446 5445 5443 5442 5441 5439 5439 5437 5436 5435 5434 5434 5434 5434 5436 5436 5436 5434 5433 5433 5433 5432 5432 5431 5430 5429 5429 5429 5430 5430 5431 5431 5431
5449 5447 5446 5445 5444 5442 5441 5439 5438 5437 5436 5435 5433 5432 5431 5429 5428 5427 5427 5426 5425 5424 5424 5425 5425 5426 5426 5423 5421 5420 5420 5420 5421 5421 5420 5419 5419 5420 5420 5421 5420 5420 5420
5437 5436 5435 5434 5433 5432 5430 5428 5427 5427 5426 5425 5424 5422 5421 5420 5418 5417 5417 5416 5415 5414 5414 5414 5415 5415 5415 5412 5410 5408 5407 5408 5410 5410 5407 5409 5408 5410 5410 5410 5410 5409 5409
5426 5425 5424 5423 5423 5422 5419 5418 5416 5416 5415 5415 5413 5413 5412 5411 5410 5409 5408 5407 5406 5405 5404 5404 5404 5404 5403 5402 5399 5397 5396 5395 5396 5397 5395 5399 5399 5400 5400 5400 5399 5399 5398
5415 5415 5414 5413 5413 5412 5409 5408 5407 5406 5406 5405 5404 5404 5403 5403 5402 5401 5400 5400 5400 5399 5397 5395 5394 5394 5392 5390 5388 5386 5385 5385 5385 5385 5384 5386 5389 5389 5389 5389 5389 5388 5388
5405 5404 5403 5403 5403 5402 5400 5398 5397 5397 5397 5397 5396 5395 5394 5394 5393 5392 5392 5392 5391 5390 5387 5384 5383 5381 5380 5378 5376 5375 5374 5374 5376 5377 5374 5373 5376 5376 5379 5380 5379 5377 5376
5395 5394 5393 5393 5393 5392 5391 5389 5388 5388 5389 5388 5388 5387 5385 5385 5384 5383 5383 5383 5382 5380 5378 5376 5374 5373 5370 5369 5366 5365 5364 5363 5364 5364 5364 5361 5362 5361 5365 5370 5368 5366 5366